Starlink 30374

operational
NORAD ID: 57809 Int'l Des: 2023-138 Owner: SPXS Country: US Constellation: starlink
LEOCIRCULAR

Über Starlink 30374

Beschreibung wird geladen...

Live-Position

3D-Globus wird geladen...

Nächste Überflüge

Höhenverlauf

Altitude vs Time

uPlot chart will show altitude changes over time

Zweizeiliger Elementsatz

1 57809U 23138B 25352.26535819 -.00000318 00000-0 -84604-5 0 9993
2 57809 43.0028 318.8537 0001010 255.4455 104.6275 15.02528972126460
Epoch: 18. Dez. 2025 • Age: 27 hours

Aktueller Status

Höhe 567.3 km
Geschwindigkeit 7.58 km/s
Subsatellitenpunkt -31.63°S, 44.43°E
Startdatum 9. Sept. 2023
Alter 2.2 years
Typ internet

Technische Details

Klassifizierung Payload
Masse 730.00 kg
Trockenmasse 700.00 kg
Gesamtmasse 730.00 kg
Länge 0.30 m
Durchmesser 4.10 m
Spannweite 29.00 m
Form Box + pan
Hersteller SPXS
Bus-Typ Starlink V2M
Phasenstatus In Orbit
Besitzer/Staat SPXS/US

Große Konstellationen

Loading constellations...